Regional Weather Roundup
Issued by NWS Wilmington, NC

Home | Current Version | Previous Version | Text Only | Print | Product List | Glossary On
Versions: 1 2 3 4 5 6 7 8 9 10 11 12 13 14 15 16 17 18 19 20 21 22 23 24 25 26 27 28 29 30 31 32 33 34 35 36 37 38 39 40 41 42 43 44 45 46 47 48 49 50
361
ASUS42 KILM 240712
RWRILM
RWRILM
REGIONAL HOURLY WEATHER ROUNDUP
NATIONAL WEATHER SERVICE WILMINGTON NC
200 AM EST TUE JAN 24 2017

NOTE: "FAIR" INDICATES FEW OR NO CLOUDS BELOW 12,000 FEET WITH NO
SIGNIFICANT WEATHER AND/OR OBSTRUCTIONS TO VISIBILITY.

...............WFO WILMINGTON COUNTY WARNING AREA...............

......COASTAL NC AND SC COUNTIES......

CITY           SKY/WX    TMP DP  RH WIND       PRES   REMARKS
WILMINGTON     CLOUDY    49  47  93 NW15      29.46R
N MYRTLE BEACH MOCLDY    51  48  89 NW8       29.49R
MYRTLE BEACH   PTCLDY    52  46  82 W9        29.53R

......INLAND NC AND SC COUNTIES.......

CITY           SKY/WX    TMP DP  RH WIND       PRES   REMARKS
LUMBERTON      CLOUDY    48  42  80 NW13G22   29.51R
ELIZABETHTOWN  CLOUDY    49  43  81 NW10      29.49R
WHITEVILLE     CLOUDY    49  44  81 NW6       29.50R
FLORENCE       PTCLDY    49  45  86 NW7       29.54R
DARLINGTON     CLOUDY    48  43  82 NW7       29.54R
KINGSTREE      CLOUDY    52  46  82 NW7       29.55R
HARTSVILLE     FAIR      45  43  93 CALM      29.54S
BENNETTSVILLE  MOCLDY    50  45  81 NW8       29.53R
CONWAY         FAIR      50  46  87 W3        29.52R
GEORGETOWN     MOCLDY    52  50  93 W7        29.54R
MARION         MOCLDY    48  43  81 NW7       29.53R

....................REST OF NORTH CAROLINA......................

.........EASTERN NC.........

CITY           SKY/WX    TMP DP  RH WIND       PRES   REMARKS
CAPE HATTERAS  CLOUDY    50  47  89 NW17G28   29.34R
JACKSONVILLE   CLOUDY    47  43  86 NW9G16    29.45R
MOREHEAD CITY  CLOUDY    50  46  86 W17       29.40R
KENANSVILLE    CLOUDY    46  41  81 NW10      29.47R
NEW BERN       CLOUDY    47  42  83 NW12G23   29.42R
ELIZABETH CITY CLOUDY    45  43  93 NW17      29.35R

.........CENTRAL NC.........

CITY           SKY/WX    TMP DP  RH WIND       PRES   REMARKS
RALEIGH DURHAM CLOUDY    43  36  76 NW8       29.51R
ROCKY MOUNT    CLOUDY    42  38  85 N14       29.47R
ROANOKE RAPIDS NOT AVBL
FAYETTEVILLE   MOCLDY    47  40  76 NW16G22   29.50R
HOFFMAN        CLOUDY    46  40  81 NW8       29.53R

.........WESTERN NC.........

CITY           SKY/WX    TMP DP  RH WIND       PRES   REMARKS
CHARLOTTE      PTCLDY    45  43  93 SW3       29.55R
GREENSBORO     CLOUDY    42  40  92 NW5       29.50F
HICKORY        NOT AVBL
BOONE          NOT AVBL
ASHEVILLE      NOT AVBL

.....................REST OF SOUTH CAROLINA.....................

.........EASTERN SC.........

CITY           SKY/WX    TMP DP  RH WIND       PRES   REMARKS
CHARLESTON     PTCLDY    55  48  77 W13       29.55R
BEAUFORT MCAS  CLEAR     54  46  74 W10       29.59R
HILTON HEAD    CLEAR     54  46  76 NW10G17   29.61R

.........CENTRAL SC.........

CITY           SKY/WX    TMP DP  RH WIND       PRES   REMARKS
COLUMBIA       PTCLDY    52  46  80 W8        29.56R
ORANGEBURG     CLEAR     53  46  77 W9        29.57R
SUMTER SHAW    CLOUDY    53  48  83 NW7       29.53R

.........WESTERN SC.........

CITY           SKY/WX    TMP DP  RH WIND       PRES   REMARKS
GREENVILLE     NOT AVBL
ROCK HILL      PTCLDY    43  42  97 CALM      29.55S
ANDERSON       CLEAR     50  41  71 W8        29.60R
CLEMSON        NOT AVBL
GREENWOOD      CLEAR     49  41  74 W8        29.61R


...................COASTAL AND OFFSHORE REPORTS..................

................LOCAL PIERS AND NC RESERVE................


STATION/POSITION TIME  SKY/WX   TEMP    WIND        PRES    VSBY
                                AIR SEA DIR/SP/G
                 (UTC)          (F)     (DEG/KT/KT) (MB)    (MI)
JOHNY MRCER PIER 0648               55  300/ 10/ 15  996.1R
NC RESRV MASNBRO 0545            51     300/  2      996.0
OCEAN CREST PIER NOT AVBL
SPRINGMAID  PIER NOT AVBL


................COASTAL AND OFFSHORE BUOYS................


STATION/POSITION TIME  SKY/WX   TEMP    WIND        PRES    VSBY
                                AIR SEA DIR/SP/G
                 (UTC)          (F)     (DEG/KT/KT) (MB)    (MI)
DIMNDSHOAL 41025 0650            53 75  310/ 25/ 31  992.6R
WVE H/P(F/S)=  9/11 SWL H/P/D(F/S/D)=  7/140/11

CAPE LOOKOUT     0600            52     310/ 20/ 25  993.8R
ONSLOW BAY 41036 NOT AVBL
ONSLOW BAY 41064 0608            54 67  320/ 19/ 23  994.9R
ONSLOW BAY 41159 0643               67                N/A
WVE H/P(F/S)=  6/10 SWL H/P/D(F/S/D)=  2/150/11

MASNBO INL 41110 0659               56                N/A
WVE H/P(F/S)=  4/10 SWL H/P/D(F/S/D)=  2/120/11

WILM HARBR 41108 0656               60                N/A
WVE H/P(F/S)=  6/10 SWL H/P/D(F/S/D)=  2/160/11

27SE WRITB 41037 0608            56 67  290/ 19/ 27  993.6R
FRYING PAN 41013 0650            58 69  290/ 21/ 27  997.1R
WVE H/P(F/S)=  8/10 SWL H/P/D(F/S/D)=  5/160/10

SUNST NRSH 41024 0608            53 55  310/ 14/ 17  997.2F
CAPRS NRSH 41029 0608            56 56  290/ 10/ 12  999.6R
EDISTO     41004 0550            61 68  300/ 21/ 25  998.6
WVE H/P(F/S)=  8/ 8 SWL H/P/D(F/S/D)=  3/120/12



..........OFFSHORE BUOYS BEYOND 100 NM OFFSHORE...........
.....IN A TRIANGLE---HAT TO BERMUDA TO BAHAMAS TO HAT.....


STATION/POSITION TIME  SKY/WX   TEMP    WIND        PRES    VSBY
                                AIR SEA DIR/SP/G
                 (UTC)          (F)     (DEG/KT/KT) (MB)    (MI)
150E HAT   41001 NOT AVBL
W BERMUDA  41048 0550            70 70  190/ 25/ 33  997.0
WVE H/P(F/S)= 18/11 SWL H/P/D(F/S/D)= 13/240/11

ATLANTIC S 41049 0650            74 73  160/ 21/ 25 1010.9F
WVE H/P(F/S)=  5/13 SWL H/P/D(F/S/D)=  3/ 20/13

E BAHAMAS  41046 0650            73 78  250/ 19/ 25 1006.8F
WVE H/P(F/S)=  8/ 7 SWL H/P/D(F/S/D)=  3/14

NE BAHAMAS 41047 0650            73 74  230/ 21/ 25 1001.3R
WVE H/P(F/S)= 10/ 9 SWL H/P/D(F/S/D)=  8/230/ 9

120E CANVRL41010 NOT AVBL

END




USA.gov is the U.S. government's official web portal to all federal, state and local government web resources and services.